Wind_Speed
75 73 69 64 60 60 58 53 52 45 44 39 36 36 36 33 29 31 32 29 32 34 34 36 37 38 39 38 37 37 37 35 33 30 30 31 30 28 30 30 29 29 32 34 35 36 37 37 40
77 74 73 70 64 66 63 60 57 51 52 48 43 45 42 42 38 33 35 35 33 36 37 38 38 37 40 41 41 40 41 40 38 35 33 32 32 31 28 28 30 33 35 38 37 36 42 41 43
80 78 72 76 69 72 71 66 65 60 55 58 54 47 47 44 46 42 37 37 39 39 42 41 41 39 40 42 43 44 44 43 43 41 40 38 35 34 33 32 33 35 37 38 40 38 42 40 41
85 82 74 76 76 78 78 78 74 67 64 68 62 56 49 50 50 50 46 42 42 43 44 46 45 43 40 42 47 46 47 47 45 47 44 44 42 39 38 38 38 36 36 40 40 41 43 40 44
90 88 83 75 83 83 82 83 82 77 70 69 68 63 62 54 53 52 53 50 45 46 47 48 50 50 49 46 44 49 50 48 48 48 48 48 47 46 43 43 42 37 40 41 40 41 39 40 43
94 94 89 81 89 88 85 86 84 79 79 74 71 67 65 59 56 55 54 55 56 51 52 51 52 52 52 52 51 49 50 52 51 51 53 52 52 50 50 48 48 47 44 41 41 43 41 43 43
90 97 90 87 93 95 90 90 88 86 84 80 77 71 70 67 62 59 58 57 57 58 57 57 56 54 53 55 55 55 55 55 55 55 55 56 56 55 53 53 51 51 52 46 43 42 44 43 45
93 99 92 89 88 95 97 96 90 88 90 85 79 78 74 78 67 65 61 65 63 61 61 63 64 62 59 58 57 57 58 58 59 59 58 57 57 58 57 55 52 53 50 49 47 46 46 47 46
97 95 85 81 90 89 96 93 98 94 92 88 81 81 79 74 70 74 68 67 70 64 67 67 67 68 65 64 60 59 58 58 58 59 59 59 59 58 54 54 53 50 50 51 50 48 48 48 49
98 97 96 96 94 99 101 100 98 99 96 90 88 87 84 78 75 78 76 76 77 84 70 71 72 73 72 69 66 63 61 60 60 61 61 59 58 58 57 55 53 53 53 54 53 52 51 51 52
112 98 100 99 99 104 103 97 97 100 96 99 101 94 90 88 80 82 82 80 80 85 82 75 75 76 77 73 70 68 67 67 65 64 63 63 63 62 61 59 57 59 59 57 58 58 57 57 54
112 110 101 108 105 112 112 104 103 104 102 103 101 101 96 96 95 90 85 85 85 88 89 82 84 84 84 83 79 74 71 71 70 69 70 69 68 67 66 66 63 62 62 62 61 61 65 63 59
114 121 114 110 114 116 124 114 113 103 107 109 108 105 98 95 88 91 96 87 90 87 92 91 83 85 85 84 81 82 80 78 79 76 77 75 73 72 70 68 68 66 66 68 67 67 69 66 62
116 116 121 124 123 116 122 120 119 114 115 113 110 111 105 99 94 101 97 102 94 91 93 97 92 91 93 83 84 86 81 86 87 82 76 76 78 78 78 77 73 70 70 67 65 71 66 68 67
102 106 111 114 121 127 120 121 121 124 128 121 117 112 109 110 112 106 102 108 99 98 99 97 94 94 94 94 91 87 86 86 92 91 84 86 87 84 81 80 80 78 71 70 70 69 68 71 68
93 94 96 102 108 112 117 108 111 119 120 127 123 116 122 122 110 109 111 109 101 106 107 104 102 104 101 96 99 91 62 96 94 96 89 93 89 87 83 82 82 82 74 70 72 69 69 63 63
89 92 95 98 104 107 109 102 103 110 110 111 114 111 115 122 121 113 120 117 110 106 106 104 109 110 108 105 104 105 103 99 96 94 99 100 92 86 84 84 84 82 77 70 72 62 64 65 65
88 89 91 92 97 99 98 95 98 103 104 102 105 107 107 112 118 114 119 119 118 125 120 115 118 112 112 112 110 112 108 107 101 101 98 99 93 91 86 89 90 88 83 81 77 74 70 68 67
67 86 92 96 97 97 97 93 97 101 102 104 103 106 106 102 97 105 112 116 116 114 119 117 103 105 111 112 111 109 102 101 105 106 103 99 98 97 92 93 97 93 88 84 80 79 80 74 68
32 42 63 81 96 98 101 96 96 99 98 99 105 106 108 109 105 105 105 108 109 111 112 114 112 112 112 110 111 112 109 108 104 107 105 103 103 101 98 94 91 90 91 88 86 78 74 69 62
25 28 43 48 61 79 91 96 97 101 105 104 102 106 106 105 107 108 106 106 105 102 101 102 104 107 109 109 111 111 106 104 101 97 95 96 93 94 93 96 95 95 90 83 78 74 75 75 72
35 34 29 39 56 57 63 65 82 97 106 107 109 110 110 112 111 107 104 105 104 101 102 101 101 101 103 104 107 104 102 99 98 100 98 98 95 91 86 81 81 80 78 77 84 81 80 74 72
37 40 45 37 41 55 62 70 62 77 86 94 108 118 119 117 116 113 108 105 103 105 104 106 105 104 103 102 105 103 100 97 96 96 96 94 94 94 90 87 81 79 71 68 62 76 80 82 81
44 47 51 53 49 45 60 79 59 71 87 96 105 118 123 121 120 120 115 110 106 103 102 105 108 108 106 103 104 104 101 100 97 94 93 93 89 87 87 86 82 75 70 67 59 65 72 73 75
53 57 60 61 60 45 55 71 70 84 98 107 110 112 112 114 114 118 118 113 109 107 107 105 105 104 104 103 103 104 101 98 94 93 93 92 90 87 85 82 82 78 72 74 88 79 81 77 80
57 61 68 70 60 50 61 62 59 86 91 99 97 100 104 101 99 102 107 115 115 114 112 110 108 105 102 101 104 103 102 100 98 96 93 92 91 89 87 87 86 87 90 89 91 87 86 80 72
59 65 73 81 67 58 56 58 54 69 69 74 80 85 92 91 93 94 97 102 112 117 114 111 112 110 109 106 105 101 100 100 97 94 91 92 93 92 88 87 86 87 90 92 93 89 84 84 81
64 69 78 80 71 61 51 49 55 58 58 65 71 74 77 79 83 85 89 96 100 108 111 112 113 113 112 110 108 104 100 97 95 93 93 93 93 92 90 88 88 88 87 87 87 88 89 87 81
70 78 85 78 77 62 49 44 50 57 59 62 64 66 64 68 74 76 82 88 93 96 101 105 109 110 110 110 109 105 103 102 99 96 96 95 94 93 92 90 88 86 86 87 85 85 83 83 83
76 84 83 80 73 62 48 38 43 52 56 59 58 60 62 64 66 71 75 81 86 91 90 93 98 100 105 109 107 107 105 103 103 101 99 99 97 97 95 91 88 87 87 86 84 83 82 80 80
Wind_Direction
237 238 241 237 240 248 247 242 240 239 247 248 253 243 249 247 242 244 239 236 235 225 224 222 223 226 231 235 236 244 251 253 255 258 267 274 280 285 294 299 302 303 306 311 314 319 319 326 325
235 238 239 237 238 246 244 242 241 239 251 247 250 245 244 248 246 237 241 239 239 233 230 228 230 233 233 236 238 241 245 252 255 258 260 268 276 280 286 292 298 302 303 307 309 314 318 322 324
235 235 238 235 238 247 245 241 243 241 242 252 250 250 242 240 244 244 236 236 238 237 233 232 234 239 242 241 242 243 245 249 255 259 261 263 273 278 281 289 294 296 299 303 306 312 315 317 320
235 235 234 235 236 242 247 246 244 242 242 251 255 254 248 249 242 247 242 236 234 237 236 234 234 241 248 249 247 245 247 249 251 256 260 262 266 272 278 283 287 293 295 300 302 309 311 313 316
236 236 234 236 240 243 250 250 249 245 240 248 254 251 255 249 241 243 249 247 240 240 237 238 241 244 251 253 254 253 252 252 255 257 261 265 268 270 277 283 282 288 296 295 297 302 304 305 309
233 235 236 237 239 242 248 250 249 248 245 245 254 252 255 251 244 240 245 249 249 247 248 240 241 244 248 252 252 254 254 255 256 259 262 264 267 268 272 276 279 282 287 290 292 294 297 299 304
234 234 235 238 239 243 246 248 248 247 247 247 250 251 252 253 248 240 245 245 247 248 252 256 249 245 249 251 253 254 254 254 257 257 259 262 266 268 271 275 278 282 285 286 286 288 294 297 301
239 235 236 238 240 245 246 245 248 248 244 251 251 251 251 254 251 247 250 244 243 246 248 254 257 253 249 248 251 255 258 259 260 262 262 266 267 269 271 273 277 281 282 285 286 286 289 294 294
241 238 234 237 243 244 245 243 246 250 248 247 252 253 251 247 246 248 248 244 241 245 249 248 250 254 254 252 253 255 257 261 262 264 267 269 271 272 274 276 278 279 283 283 284 285 290 292 297
236 238 240 238 242 242 243 245 248 249 251 250 252 250 251 249 245 244 247 248 247 247 249 249 250 251 251 252 253 255 257 260 263 265 266 268 271 274 275 277 279 281 281 282 282 285 289 291 296
230 233 240 238 239 246 245 246 248 252 253 255 252 251 251 253 253 253 254 248 248 249 252 255 254 252 250 253 254 253 256 259 261 262 266 268 270 273 277 278 280 280 281 281 283 285 288 292 299
241 232 239 233 243 240 241 243 246 250 251 248 248 253 254 256 250 254 256 251 249 250 253 258 256 256 252 251 252 255 254 257 261 265 266 267 268 270 272 274 276 277 280 281 284 288 290 295 297
240 240 239 235 235 239 240 242 242 243 244 246 247 249 248 248 249 256 258 249 247 251 254 256 253 253 252 251 254 254 256 258 261 264 263 266 267 269 270 271 273 276 278 280 283 285 288 290 294
243 245 245 244 239 243 238 243 245 242 242 242 245 248 248 247 248 255 253 257 253 249 251 253 254 252 249 249 255 257 258 258 259 261 263 264 267 270 270 270 271 273 276 278 279 285 285 285 289
242 243 245 246 248 248 247 247 250 249 249 244 246 245 247 245 248 246 246 252 251 253 256 257 254 252 248 252 256 253 260 260 256 259 261 267 267 270 270 270 269 272 275 277 284 285 284 288 293
242 243 244 245 247 248 251 251 252 254 255 250 250 250 250 256 249 246 246 246 247 249 249 253 255 256 253 258 255 260 248 262 257 256 260 264 266 266 268 273 275 276 275 278 280 279 286 287 289
243 244 245 248 248 248 248 249 252 254 254 256 256 256 254 254 256 250 247 247 244 246 244 247 250 253 253 257 259 260 258 258 255 259 260 263 264 263 264 266 268 270 271 274 276 274 279 281 282
247 247 246 246 248 247 250 249 250 252 253 254 255 255 254 254 254 254 255 251 249 247 253 252 251 249 250 252 253 255 255 256 255 258 261 260 263 263 259 264 265 265 266 268 268 272 276 276 278
249 247 247 248 248 248 246 246 248 251 254 254 254 254 253 252 251 252 252 252 250 250 250 253 251 253 252 253 254 248 249 252 254 259 262 261 264 264 262 258 263 265 266 262 269 268 269 274 275
267 257 251 251 249 249 250 245 248 249 251 253 253 253 254 252 249 248 248 249 250 250 251 252 251 249 249 250 249 250 249 251 252 253 254 254 257 258 259 259 259 264 268 269 267 266 264 265 266
328 291 269 260 256 252 251 250 251 251 249 249 251 253 251 250 249 246 246 247 247 247 249 248 248 250 252 251 250 250 251 252 252 249 250 251 253 256 257 256 259 262 266 268 265 266 265 263 264
323 327 314 278 262 260 257 246 249 247 247 248 249 248 250 250 249 248 247 247 248 247 246 247 248 248 249 249 250 250 250 250 252 253 253 254 255 256 256 256 256 258 261 266 268 268 265 263 264
321 320 320 308 277 260 259 254 239 248 250 249 247 247 246 247 251 251 249 249 249 248 249 248 247 247 248 249 250 250 251 252 252 252 251 252 253 254 254 253 253 257 260 265 263 262 268 264 263
320 318 320 317 298 266 257 257 243 251 247 247 247 247 247 246 248 250 250 249 249 249 248 248 248 248 248 248 250 250 249 249 249 250 252 251 251 251 255 254 252 252 249 246 245 253 258 264 265
321 318 318 320 310 285 268 261 257 251 249 250 249 251 251 251 249 249 249 250 249 248 247 248 248 249 249 248 248 249 250 251 250 250 251 253 252 251 250 249 248 247 245 241 246 252 255 263 265
317 312 314 318 308 294 289 274 263 256 254 255 256 255 253 251 249 247 248 247 247 246 247 248 248 248 247 246 247 248 249 249 249 249 250 251 251 250 251 250 250 249 250 250 251 253 257 260 260
313 313 316 317 310 297 286 276 263 259 256 251 252 250 251 249 246 244 244 244 244 244 245 245 246 248 248 248 249 248 249 250 251 251 251 252 252 251 250 250 251 251 250 251 252 253 253 258 260
313 313 319 315 310 302 288 272 263 259 253 255 251 247 246 247 247 242 241 243 245 245 244 244 245 246 248 249 250 251 251 251 251 251 250 249 251 253 253 252 250 250 251 251 252 253 255 257 256
316 317 320 315 310 302 288 276 264 258 255 249 248 250 246 244 243 238 238 240 243 244 245 244 244 246 248 248 249 251 251 252 252 251 250 250 250 250 251 251 251 251 252 252 252 253 254 255 257
317 320 318 316 308 302 296 289 263 257 251 253 251 246 245 243 242 241 238 237 239 243 243 243 245 246 246 247 248 248 248 249 250 250 250 250 250 250 250 250 251 251 251 252 252 252 253 253 254
Height
10895 10899 10903 10907 10913 10914 10916 10922 10927 10933 10938 10945 10951 10953 10954 10955 10956 10957 10958 10960 10963 10964 10966 10967 10968 10969 10971 10973 10975 10975 10975 10975 10974 10974 10975 10975 10976 10976 10976 10975 10974 10973 10971 10971 10969 10968 10966 10965 10962
10884 10890 10894 10901 10906 10905 10906 10913 10918 10925 10928 10934 10942 10947 10949 10950 10950 10951 10952 10954 10957 10961 10962 10963 10965 10965 10966 10967 10969 10969 10970 10971 10971 10971 10971 10971 10972 10972 10972 10971 10970 10969 10968 10967 10966 10965 10963 10962 10960
10872 10879 10885 10892 10898 10895 10896 10900 10904 10913 10921 10924 10931 10939 10944 10945 10945 10946 10947 10948 10950 10954 10957 10958 10960 10961 10961 10963 10964 10964 10965 10965 10967 10967 10967 10967 10967 10967 10967 10967 10966 10966 10964 10964 10962 10962 10960 10959 10957
10859 10867 10876 10884 10888 10883 10885 10888 10891 10903 10913 10913 10920 10928 10934 10939 10940 10940 10940 10942 10944 10946 10949 10952 10954 10955 10957 10958 10958 10959 10960 10960 10960 10962 10961 10961 10962 10962 10963 10963 10962 10961 10961 10960 10960 10959 10957 10955 10953
10845 10854 10866 10877 10877 10874 10872 10878 10879 10891 10900 10903 10908 10916 10923 10930 10933 10934 10934 10937 10937 10938 10941 10944 10947 10949 10951 10952 10953 10955 10955 10956 10957 10957 10957 10957 10957 10958 10958 10958 10957 10956 10956 10956 10956 10955 10954 10952 10949
10834 10842 10856 10866 10863 10859 10862 10864 10866 10878 10884 10892 10897 10905 10910 10917 10924 10927 10929 10930 10932 10930 10932 10936 10939 10942 10944 10945 10946 10947 10949 10950 10950 10952 10952 10951 10951 10952 10952 10951 10951 10951 10950 10950 10950 10950 10949 10947 10946
10821 10829 10844 10852 10850 10851 10849 10850 10852 10862 10870 10877 10888 10893 10898 10903 10911 10919 10921 10923 10925 10927 10925 10927 10930 10934 10936 10938 10939 10940 10941 10941 10942 10943 10943 10944 10945 10946 10947 10946 10945 10946 10945 10944 10943 10943 10942 10942 10940
10804 10815 10832 10840 10838 10838 10830 10831 10835 10839 10859 10868 10876 10881 10886 10891 10901 10906 10911 10913 10916 10917 10919 10920 10922 10924 10926 10928 10930 10932 10933 10934 10934 10935 10936 10938 10938 10939 10941 10939 10939 10938 10937 10937 10936 10936 10935 10935 10934
10787 10806 10820 10820 10818 10814 10808 10814 10820 10823 10843 10858 10862 10867 10872 10878 10887 10894 10897 10901 10904 10906 10908 10910 10912 10915 10917 10919 10921 10923 10924 10926 10927 10927 10929 10930 10931 10932 10933 10933 10931 10931 10930 10929 10928 10928 10929 10929 10928
10775 10792 10798 10797 10798 10794 10793 10803 10805 10815 10826 10844 10849 10855 10858 10866 10874 10880 10884 10889 10892 10894 10895 10899 10900 10904 10906 10909 10912 10914 10915 10916 10918 10919 10920 10922 10923 10924 10924 10926 10925 10924 10923 10921 10920 10920 10922 10922 10921
10761 10776 10775 10779 10785 10782 10778 10793 10789 10802 10820 10819 10829 10838 10845 10853 10860 10867 10872 10876 10879 10882 10884 10886 10888 10891 10895 10899 10902 10904 10906 10906 10908 10909 10911 10913 10914 10914 10916 10917 10919 10916 10914 10913 10912 10912 10913 10915 10916
10745 10758 10760 10764 10767 10771 10762 10771 10780 10790 10808 10792 10810 10816 10827 10835 10845 10851 10856 10863 10864 10866 10870 10871 10873 10876 10880 10886 10890 10893 10895 10896 10897 10899 10900 10902 10902 10904 10905 10907 10909 10908 10906 10904 10904 10904 10904 10907 10908
10724 10730 10738 10742 10743 10746 10740 10748 10756 10786 10782 10772 10785 10793 10808 10817 10823 10833 10839 10845 10851 10851 10853 10854 10857 10861 10864 10871 10877 10879 10883 10885 10886 10888 10889 10890 10890 10892 10895 10896 10898 10898 10897 10895 10895 10897 10897 10897 10898
10706 10710 10717 10721 10720 10723 10729 10727 10747 10763 10752 10755 10764 10775 10784 10800 10809 10817 10826 10827 10833 10836 10838 10835 10840 10845 10850 10856 10862 10867 10872 10875 10876 10876 10876 10878 10878 10880 10882 10884 10885 10885 10888 10886 10884 10887 10889 10889 10888
10685 10693 10696 10699 10697 10700 10707 10720 10735 10717 10724 10743 10746 10758 10762 10781 10792 10803 10805 10809 10814 10821 10823 10821 10819 10826 10830 10838 10844 10852 10859 10861 10862 10862 10863 10866 10867 10868 10871 10873 10871 10872 10876 10875 10874 10875 10877 10879 10879
10665 10672 10674 10674 10678 10678 10685 10717 10703 10701 10700 10723 10728 10740 10747 10757 10770 10780 10782 10793 10796 10804 10808 10804 10805 10805 10807 10812 10823 10838 10867 10838 10846 10849 10852 10853 10855 10856 10861 10864 10862 10860 10866 10867 10864 10864 10866 10869 10869
10646 10653 10658 10657 10659 10664 10675 10695 10685 10681 10682 10692 10705 10710 10720 10727 10736 10753 10761 10769 10775 10780 10783 10785 10785 10789 10789 10792 10801 10810 10824 10826 10825 10831 10836 10838 10839 10845 10848 10852 10851 10849 10854 10859 10856 10855 10854 10858 10859
10633 10637 10639 10640 10637 10648 10659 10675 10664 10657 10663 10672 10677 10687 10689 10699 10712 10718 10726 10735 10745 10758 10760 10765 10768 10772 10771 10775 10782 10788 10795 10800 10805 10811 10816 10820 10824 10828 10836 10833 10838 10838 10842 10845 10846 10847 10847 10845 10847
10611 10615 10616 10618 10619 10627 10634 10647 10644 10639 10643 10653 10651 10653 10663 10675 10683 10681 10694 10702 10714 10726 10735 10740 10742 10743 10749 10756 10761 10764 10774 10779 10786 10790 10797 10800 10807 10813 10817 10821 10819 10824 10830 10835 10835 10838 10838 10835 10836
10600 10600 10599 10599 10597 10607 10605 10626 10628 10623 10629 10631 10628 10630 10635 10648 10656 10657 10663 10672 10683 10698 10707 10713 10717 10714 10721 10731 10735 10741 10752 10761 10764 10770 10774 10781 10783 10792 10799 10804 10806 10808 10811 10816 10826 10825 10824 10826 10823
10592 10590 10587 10587 10582 10585 10589 10606 10605 10607 10605 10607 10607 10604 10612 10617 10623 10634 10641 10644 10657 10671 10683 10688 10692 10694 10700 10708 10706 10719 10727 10736 10740 10749 10752 10756 10765 10770 10778 10787 10792 10798 10803 10800 10805 10811 10813 10810 10811
10583 10580 10579 10574 10570 10569 10565 10588 10582 10577 10575 10582 10586 10582 10580 10584 10589 10603 10617 10621 10631 10644 10650 10660 10666 10671 10676 10686 10688 10696 10704 10712 10719 10726 10732 10737 10748 10753 10757 10768 10777 10782 10789 10794 10793 10791 10796 10799 10799
10574 10568 10563 10561 10557 10557 10554 10546 10568 10548 10554 10554 10549 10541 10546 10549 10560 10575 10590 10600 10612 10617 10626 10633 10641 10647 10656 10664 10668 10677 10683 10691 10696 10700 10708 10718 10729 10733 10741 10754 10761 10768 10779 10776 10777 10774 10773 10777 10782
10559 10553 10548 10543 10536 10545 10528 10514 10562 10541 10525 10515 10508 10505 10514 10530 10535 10541 10559 10575 10587 10597 10606 10608 10615 10623 10633 10640 10645 10651 10660 10667 10678 10683 10687 10699 10710 10717 10725 10735 10749 10752 10761 10762 10762 10756 10756 10758 10764
10538 10531 10528 10525 10515 10519 10507 10497 10518 10506 10493 10475 10471 10477 10488 10499 10514 10524 10534 10547 10563 10573 10576 10583 10592 10600 10609 10617 10622 10624 10634 10646 10659 10666 10672 10677 10688 10698 10706 10715 10726 10734 10737 10751 10745 10747 10746 10748 10753
10526 10517 10505 10500 10496 10495 10483 10480 10482 10456 10459 10451 10459 10466 10467 10481 10492 10498 10507 10518 10527 10538 10551 10559 10566 10574 10585 10592 10595 10604 10614 10624 10634 10643 10652 10658 10666 10675 10684 10695 10705 10713 10717 10723 10726 10732 10733 10735 10740
10515 10503 10490 10474 10470 10464 10458 10447 10443 10427 10434 10435 10432 10438 10440 10452 10462 10473 10480 10487 10494 10505 10521 10535 10540 10548 10557 10565 10573 10585 10595 10604 10614 10625 10634 10638 10640 10649 10661 10672 10680 10688 10696 10703 10707 10714 10716 10720 10726
10497 10488 10475 10457 10444 10437 10431 10424 10416 10413 10413 10414 10413 10417 10423 10429 10436 10448 10457 10463 10470 10479 10493 10506 10514 10523 10530 10540 10551 10563 10575 10585 10595 10604 10610 10617 10621 10628 10636 10648 10658 10666 10673 10681 10689 10695 10699 10706 10710
10476 10463 10452 10437 10418 10407 10406 10406 10401 10394 10392 10393 10397 10402 10409 10412 10413 10421 10432 10441 10447 10454 10466 10476 10486 10498 10510 10516 10524 10541 10551 10558 10569 10579 10585 10592 10601 10607 10615 10625 10635 10643 10650 10656 10664 10672 10678 10686 10691
10457 10445 10430 10415 10398 10385 10384 10388 10377 10374 10374 10377 10383 10386 10391 10396 10399 10404 10410 10418 10427 10431 10441 10451 10461 10472 10478 10486 10503 10513 10519 10531 10539 10549 10558 10566 10576 10585 10595 10605 10613 10621 10627 10634 10643 10650 10657 10666 10672